sat.trackr.live / text

‹ back to catalog

STARLINK-34176

NORAD 64104 · 2025-110J

PAYLOAD ACTIVE UNKNOWN

§ Identity

Operator
Country
US
Launch date
2025-05-23
Launch site
AFWTR
Launch vehicle
Mass (kg)
RCS (m²)

Purposes: comms

External: N2YO · Heavens-Above · Gunter

§ Orbital elements

Epoch: 2026-05-25T01:44:34.156320Z

Period
94.10 min
Inclination
53.1624°
Eccentricity
0.0001062
Mean motion
15.30207476 rev/d
Perigee alt
474.5 km
Apogee alt
475.9 km
Semi-major
6,853.3 km
B*
7.1489e-4
RAAN
32.2121°
Arg perigee
96.7804°
Mean anomaly
263.3317°
Rev number
5,757

§ Raw data

STARLINK-341761 64104U 25110J   26145.07261755  .00020878  00000+0  71489-3 0  99912 64104  53.1624  32.2121 0001062  96.7804 263.3317 15.30207476 57576

JSON: /api/v1/satellites/64104 · /tle

For live sub-satellite position, see the globe view (requires WebGL).

§ Visibility from observer

Set your observer location to see the next 7 days of passes ≥ 10°. The values pass through the URL so the page stays shareable.

No JS? Fill the form by hand. The geolocation button needs JavaScript.